Regional Weather Roundup
Issued by NWS Charleston, SC

Current Version | Previous Version | Text Only | Print | Product List | Glossary On
Versions: 1 2 3 4 5 6 7 8 9 10 11 12 13 14 15 16 17 18 19 20 21 22 23 24 25 26 27 28 29 30 31 32 33 34 35 36 37 38 39 40 41 42 43 44 45 46 47 48 49 50
000
ASUS42 KCHS 170325
RWRCHS

REGIONAL WEATHER ROUNDUP
NATIONAL WEATHER SERVICE CHARLESTON SC
1100 PM EDT TUE SEP 16 2014

NOTE: "FAIR" INDICATES FEW OR NO CLOUDS BELOW 12,000 FEET WITH NO
SIGNIFICANT WEATHER AND/OR OBSTRUCTIONS TO VISIBILITY.

NOT ALL STATIONS ARE QUALITY CONTROLLED BY THE NATIONAL
WEATHER SERVICE. USE DATA WITH CAUTION...ESPECIALLY
DEWPOINT OBSERVATIONS.

SCZ027-030-031-034>040-042>050-170400-
...SOUTH CAROLINA...

CITY           SKY/WX    TMP DP  RH WIND       PRES   REMARKS
N CHARLESTON   CLOUDY    74  71  91 NE5       29.94S
WATERFRONT PRK   N/A     79 N/A N/A NE8         N/A
FORT JOHNSON   NOT AVBL
MOUNT PLEASANT FAIR      72  72 100 CALM      29.94F FOG
JOHNS ISLAND   CLEAR     73  73 100 CALM      29.95R
PINOPOLIS        N/A     75  72  88 MISG      29.87F
MONCKS CORNER    N/A     72  72 100 CALM      29.94S FOG
SUMMERVILLE    FAIR      72  72 100 CALM      29.94F
BEAUFORT MCAS  RAIN      74  72  93 SE6       29.94F
BEAUFORT ARPT  MOCLDY    73  73 100 NW3       29.94S
HILTON HEAD IS CLOUDY    75  75 100 CALM      29.95F FOG
GEORGETOWN     NOT AVBL
WALTERBORO     MOCLDY    72 N/A N/A CALM      29.95S
ORANGEBURG     PTCLDY    71  69  93 S3        29.94F
BARNWELL       MOCLDY    73  70  88 SW5       29.97R
AIKEN          MOCLDY    70  70 100 SE9       30.01S THUNDER
MANNING        FAIR      72 N/A N/A CALM      29.93F
KINGSTREE      NOT AVBL
COLUMBIA       MOCLDY    76  68  76 S5        29.93F
SUMTER         PTCLDY    73  67  83 SW3       29.93F
FLORENCE       PTCLDY    73  70  90 W3        29.95S
MYRTLE BEACH   CLOUDY    75  72  88 CALM      29.95R
N MYRTLE BEACH MOCLDY    79  71  76 S6        29.94F

$$

GAZ063-065-086>088-099>101-113>116-118-119-134-136>141-150-170400-
...GEORGIA...

CITY           SKY/WX    TMP DP  RH WIND       PRES   REMARKS
SAVANNAH ARPT  RAIN      72  69  90 N8        29.97F
HUNTER AAF     CLOUDY    72  70  94 S2        29.95F
FORT STEWART   MOCLDY    74  69  84 CALM      29.95F
STATESBORO     NOT AVBL
SYLVANIA       LGT RAIN  74  73  97 CALM      29.98F
CLAXTON        FAIR      73  73 100 E8        29.97F
THOMSON        CLOUDY    75  74  98 W7        30.01S
AUGUSTA-BUSH   CLEAR     75  72  90 SE12      29.95R
AUGUSTA-DANIEL PTCLDY    78  72  81 W3        29.96S
SWAINSBORO     FAIR      73  73 100 CALM      29.98F
VIDALIA        CLOUDY    70  70 100 CALM      29.97F
ALMA           PTCLDY    71  69  93 W7        29.98R
WAYCROSS       MOCLDY    74  74  98 W3        29.97F
JESUP          FAIR      77  72  83 N5        29.98S
BRUNSWICK      MOCLDY    75  72  88 W3        29.98R
SAINT SIMONS   CLOUDY    75  73  93 SW7       29.96S

$$

SCZ027-028-034-036>038-045-046-048>050-GAZ119-141-170400-
...LAKE AND SUPPLEMENTAL COASTAL OBSERVATIONS...

STATION/POSITION TIME  TEMP    WIND        PRES    WAVE   SWELL
                       AIR SEA DIR/SP/G            HT/PER HT/PER/DIR
                 (UTC) (F)     (DEG/KT/KT) (MB)    (FT/S) (FT/S/D)
UPR LAKE MARION  NOT AVBL
WINYAH BAY       0300   73        CALM     1014.0S
LAKE MURRAY      0200   78     160/ 13/ 16 1013.2F
ACE BASIN NERRS  0300   73        CALM     1014.0S
FORT PULASKI     0300   73     320/  6/  7 1014.9F
SAPELO ISLAND    0300   78     260/  7     1015.0S

$$

ANZ835-935-AMZ111-154-330-350-352-354-374-450-454-472-170400-
...C-MAN AND BUOY OBSERVATIONS...

STATION/POSITION TIME  TEMP    WIND        PRES    WAVE   SWELL
                       AIR SEA DIR/SP/G            HT/PER HT/PER/DIR
                 (UTC) (F)     (DEG/KT/KT) (MB)    (FT/S) (FT/S/D)
FOLLY BEACH CMAN 0300   76     110/  5/  7 1014.1F
BUOY 41004       0300   77 83  150/ 14/ 17 1013.5F   1/13   2/13
BUOY 41008       0300   81 84  220/  8/ 10 1014.1F   1/ 8   2/ 80/ 8
5E ST. MARYS GA  0300      83                N/A     2/ 8
FRYING PAN BUOY  NOT AVBL
BUOY 41025       0300   77     270/  2/  4 1014.6S   2/12   2/ 90/12
CAPE LOOKOUT NC  0300   78     200/  5/  6 1014.2F
BUOY 41002       0250   78 82  170/  8/ 12 1015.0S   4/14   3/100/14
BUOY 41010       0300   82 85  200/  6/  6 1015.7F   3/ 8   3/ 50/ 8
BUOY 41012       NOT AVBL
ST AUGUSTINE FL  0300   75     270/  7/  9 1015.6R
CAPERS NEARSHORE 0200   75      CALM  /  2   N/A
FRIPP NEARSHORE  NOT AVBL


$$


USA.gov is the U.S. government's official web portal to all federal, state and local government web resources and services.